Decorah, IA

5:07 PM CST on December 05, 2019 (GMT -0600)
Decorah Municipal

Weather History for KDEH - October, 2019

Change the Weather History Date:

Monday, October 21, 2019

  Actual Average Record
Temperature  
Mean Temperature 50 °F -  
Max Temperature 59 °F 58 °F 79 °F (1953)
Min Temperature 42 °F 37 °F 17 °F (1952)
Degree Days  
Heating Degree Days 14    
Moisture  
Dew Point 46 °F    
Average Humidity 87    
Maximum Humidity 100    
Minimum Humidity 58    
Precipitation  
Precipitation 0.99 in - - ()
Sea Level Pressure  
Sea Level Pressure 29.36 in    
Wind  
Wind Speed 11 mph ()    
Max Wind Speed 22 mph    
Max Gust Speed 39 mph    
Visibility 7.6 miles    
Events Rain    
Averages and records for this station are not official NWS values.
T = Trace of Precipitation, MM = Missing Value Source: Averaged Metar Reports

Daily Weather History Graph

Daily Weather History Graph

Search for Another Location

Airport or City:

Astronomy

Oct. 21, 2019 Rise Set
Actual Time 7:27 AM CDT 6:14 PM CDT
Civil Twilight 6:58 AM CDT 6:43 PM CDT
Nautical Twilight 6:25 AM CDT 7:16 PM CDT
Astronomical Twilight 5:52 AM CDT 7:49 PM CDT
Moon No Moon Rise 2:52 PM CDT (10/21)
Length of Visible Light 11h 44m
Length of Day
10h 46m
Waning Gibbous, 48% of the Moon is Illuminated
Oct 21
Waning Gibbous
Oct 27
New
Nov 4
First Quarter
Nov 12
Full
Nov 19
Last Quarter

Hourly Weather History & Observations

Time (CDT) Temp. Windchill Dew Point Humidity Pressure Visibility Wind Dir Wind Speed Gust Speed Precip Events Conditions
12:15 AM 50.0 °F - 46.4 °F 87% 29.77 in 10.0 mi ESE 6.9 mph - N/A   Clear
12:35 AM 51.8 °F - 46.4 °F 82% 29.74 in 10.0 mi East 10.4 mph - N/A   Partly Cloudy
12:55 AM 51.8 °F - 44.6 °F 76% 29.71 in 10.0 mi East 11.5 mph - N/A   Scattered Clouds
1:15 AM 50.0 °F - 44.6 °F 82% 29.68 in 10.0 mi East 9.2 mph - N/A   Mostly Cloudy
1:35 AM 51.8 °F - 42.8 °F 71% 29.70 in 10.0 mi ESE 8.1 mph - N/A   Mostly Cloudy
1:55 AM 51.8 °F - 42.8 °F 71% 29.71 in 10.0 mi Variable 5.8 mph 12.7 mph N/A   Overcast
2:15 AM 51.8 °F - 42.8 °F 71% 29.70 in 10.0 mi ESE 8.1 mph - N/A   Overcast
2:35 AM 50.0 °F - 41.0 °F 71% 29.67 in 10.0 mi East 12.7 mph 19.6 mph N/A   Overcast
2:55 AM 50.0 °F - 41.0 °F 71% 29.65 in 10.0 mi East 12.7 mph - N/A   Overcast
3:15 AM 51.8 °F - 42.8 °F 71% 29.63 in 10.0 mi East 9.2 mph 19.6 mph N/A   Overcast
3:35 AM 50.0 °F - 42.8 °F 76% 29.60 in 10.0 mi East 13.8 mph 21.9 mph N/A   Overcast
3:55 AM 51.8 °F - 44.6 °F 76% 29.59 in 10.0 mi ESE 16.1 mph - N/A   Overcast
4:15 AM 50.0 °F - 46.4 °F 87% 29.57 in 10.0 mi East 13.8 mph 24.2 mph N/A   Overcast
4:35 AM 50.0 °F - 46.4 °F 87% 29.54 in 9.0 mi East 11.5 mph 21.9 mph N/A   Overcast
4:55 AM 50.0 °F - 48.2 °F 94% 29.54 in 3.0 mi ESE 9.2 mph 19.6 mph 0.08 in Rain Rain
5:15 AM 50.0 °F - 50.0 °F 100% 29.52 in 2.0 mi ESE 10.4 mph 18.4 mph N/A Rain Rain
5:35 AM 50.0 °F - 50.0 °F 100% 29.49 in 2.0 mi East 13.8 mph 20.7 mph N/A Rain Rain
5:55 AM 50.0 °F - 50.0 °F 100% 29.47 in 4.0 mi East 15.0 mph 23.0 mph 0.21 in Rain Light Rain
6:15 AM 50.0 °F - 50.0 °F 100% 29.44 in 3.0 mi East 17.3 mph 25.3 mph N/A Rain Light Rain
6:35 AM 50.0 °F - 50.0 °F 100% 29.41 in 4.0 mi ESE 12.7 mph 20.7 mph N/A   Overcast
6:55 AM 50.0 °F - 50.0 °F 100% 29.40 in 6.0 mi ESE 13.8 mph 24.2 mph 0.03 in   Overcast
7:15 AM 50.0 °F - 50.0 °F 100% 29.38 in 6.0 mi ESE 12.7 mph 21.9 mph N/A   Overcast
7:35 AM 50.0 °F - 50.0 °F 100% 29.37 in 4.0 mi ESE 11.5 mph 23.0 mph N/A Rain Light Rain
7:55 AM 51.8 °F - 51.8 °F 100% 29.35 in 3.0 mi ESE 11.5 mph 23.0 mph 0.08 in   Overcast
8:15 AM 51.8 °F - 51.8 °F 100% 29.34 in 1.8 mi ESE 9.2 mph 19.6 mph N/A Rain Rain
8:35 AM 51.8 °F - 51.8 °F 100% 29.33 in 7.0 mi ESE 11.5 mph 19.6 mph N/A   Overcast
8:55 AM 51.8 °F - 51.8 °F 100% 29.31 in 4.0 mi ESE 10.4 mph 18.4 mph 0.09 in   Mostly Cloudy
9:15 AM 51.8 °F - 51.8 °F 100% 29.29 in 2.5 mi ESE 11.5 mph 21.9 mph N/A   Mostly Cloudy
9:35 AM 51.8 °F - 51.8 °F 100% 29.27 in 1.8 mi SE 10.4 mph 18.4 mph N/A Rain Light Rain
9:55 AM 51.8 °F - 51.8 °F 100% 29.26 in 1.2 mi SSE 8.1 mph 16.1 mph 0.23 in Rain Rain
10:15 AM 51.8 °F - 51.8 °F 100% 29.24 in 2.0 mi SE 9.2 mph - N/A Rain Light Rain
10:35 AM 51.8 °F - 51.8 °F 100% 29.23 in 2.0 mi SSE 9.2 mph - N/A Rain Light Rain
10:55 AM 53.6 °F - 53.6 °F 100% 29.24 in 3.0 mi South 10.4 mph 18.4 mph 0.19 in Rain Light Rain
11:15 AM 53.6 °F - 51.8 °F 94% 29.24 in 2.5 mi Variable 6.9 mph 19.6 mph N/A Rain Light Rain
11:35 AM 55.4 °F - 53.6 °F 94% 29.23 in 9.0 mi Variable 4.6 mph - N/A   Partly Cloudy
11:55 AM 55.4 °F - 53.6 °F 94% 29.22 in 10.0 mi Variable 4.6 mph 12.7 mph 0.05 in   Unknown
12:15 PM 57.2 °F - 51.8 °F 82% 29.22 in 10.0 mi SSW 8.1 mph 15.0 mph N/A   Unknown
12:35 PM 57.2 °F - 51.8 °F 82% 29.21 in 10.0 mi South 12.7 mph 18.4 mph N/A   Unknown
12:55 PM 57.2 °F - 51.8 °F 82% 29.22 in 10.0 mi SW 11.5 mph 21.9 mph N/A   Unknown
1:15 PM 57.2 °F - 50.0 °F 77% 29.21 in 10.0 mi SSW 10.4 mph 24.2 mph N/A   Unknown
1:55 PM 59.0 °F - 48.2 °F 67% 29.21 in 10.0 mi SSW 13.8 mph 25.3 mph N/A   Scattered Clouds
2:15 PM 59.0 °F - 46.4 °F 63% 29.20 in 10.0 mi SSW 15.0 mph 28.8 mph N/A   Mostly Cloudy
2:55 PM 57.2 °F - 44.6 °F 63% 29.22 in 10.0 mi SSW 15.0 mph 27.6 mph N/A   Scattered Clouds
3:15 PM 55.4 °F - 41.0 °F 58% 29.24 in 10.0 mi SW 21.9 mph 31.1 mph N/A   Scattered Clouds
3:35 PM 53.6 °F - 42.8 °F 67% 29.25 in 10.0 mi SSW 13.8 mph 32.2 mph N/A   Mostly Cloudy
3:55 PM 51.8 °F - 42.8 °F 71% 29.26 in 10.0 mi SSW 15.0 mph 39.1 mph N/A   Overcast
4:15 PM 50.0 °F - 42.8 °F 76% 29.28 in 10.0 mi SSW 13.8 mph 29.9 mph N/A   Overcast
4:35 PM 50.0 °F - 41.0 °F 71% 29.28 in 10.0 mi South 13.8 mph 27.6 mph N/A   Overcast
4:55 PM 48.2 °F - 42.8 °F 82% 29.29 in 10.0 mi South 13.8 mph 23.0 mph N/A   Overcast
5:15 PM 48.2 °F - 42.8 °F 82% 29.29 in 10.0 mi SSW 15.0 mph 26.5 mph N/A   Overcast
5:35 PM 48.2 °F - 42.8 °F 82% 29.30 in 10.0 mi South 9.2 mph 23.0 mph N/A   Overcast
5:55 PM 48.2 °F - 41.0 °F 76% 29.31 in 10.0 mi SSW 13.8 mph 26.5 mph N/A   Overcast
6:15 PM 48.2 °F - 41.0 °F 76% 29.30 in 10.0 mi SSW 17.3 mph 28.8 mph N/A   Overcast
6:35 PM 46.4 °F 41.1 °F 41.0 °F 81% 29.30 in 10.0 mi South 11.5 mph 25.3 mph N/A   Overcast
6:55 PM 46.4 °F 40.7 °F 41.0 °F 81% 29.30 in 10.0 mi South 12.7 mph 21.9 mph N/A   Overcast
7:15 PM 46.4 °F 40.4 °F 42.8 °F 87% 29.29 in 9.0 mi South 13.8 mph 23.0 mph N/A   Overcast
7:35 PM 46.4 °F 40.1 °F 42.8 °F 87% 29.28 in 10.0 mi South 15.0 mph 25.3 mph N/A   Overcast
7:55 PM 46.4 °F 39.5 °F 42.8 °F 87% 29.27 in 10.0 mi South 17.3 mph 25.3 mph N/A   Overcast
8:15 PM 46.4 °F 40.1 °F 44.6 °F 93% 29.26 in - South 15.0 mph 23.0 mph N/A   Overcast
8:35 PM 46.4 °F 39.5 °F 44.6 °F 93% 29.25 in 6.0 mi South 17.3 mph 27.6 mph N/A   Overcast
8:55 PM 46.4 °F 40.4 °F 44.6 °F 93% 29.25 in 7.0 mi South 13.8 mph 26.5 mph 0.01 in   Overcast
9:15 PM 44.6 °F 38.4 °F 42.8 °F 93% 29.26 in 3.0 mi WSW 12.7 mph 34.5 mph N/A   Overcast
9:35 PM 42.8 °F 36.6 °F 41.0 °F 93% 29.25 in 10.0 mi SW 11.5 mph 21.9 mph N/A   Mostly Cloudy
9:55 PM 42.8 °F 36.6 °F 41.0 °F 93% 29.25 in 10.0 mi SW 11.5 mph 21.9 mph 0.01 in   Overcast
10:15 PM 42.8 °F 36.2 °F 41.0 °F 93% 29.24 in 10.0 mi SW 12.7 mph 21.9 mph N/A   Overcast
10:35 PM 42.8 °F 37.5 °F 41.0 °F 93% 29.24 in 9.0 mi SSW 9.2 mph 20.7 mph N/A   Overcast
10:55 PM 42.8 °F 37.5 °F 42.8 °F 100% 29.23 in 7.0 mi SSW 9.2 mph 24.2 mph N/A   Overcast
11:15 PM 42.8 °F 37.0 °F 41.0 °F 93% 29.23 in 7.0 mi SSW 10.4 mph 23.0 mph N/A   Overcast
11:35 PM 42.8 °F 35.8 °F 41.0 °F 93% 29.22 in 10.0 mi SSW 13.8 mph 20.7 mph N/A   Overcast
11:55 PM 42.8 °F 35.1 °F 41.0 °F 93% 29.21 in 6.0 mi SW 16.1 mph 24.2 mph 0.01 in   Overcast